GEFSSE_con_cape1000_066.txt.gz
Probability
84 81 100 100 100 100 97 97 100 100 97 94 94 90 87 84 81 77 87 90 94 97 97 100 100 100 97 97 100 100 100 100 100 100 100 100 100 100 100 100 100 100 100
87 94 100 100 100 100 100 97 97 100 100 94 94 100 94 87 90 84 84 84 87 90 97 100 100 97 97 97 97 100 100 97 94 100 100 100 100 100 100 100 100 97 97
84 97 100 100 100 100 100 97 97 94 97 97 97 97 90 90 90 84 81 77 81 84 94 90 97 90 94 94 97 100 100 94 94 100 97 100 100 100 100 100 100 100 97
81 81 100 100 100 100 100 97 97 94 94 94 97 94 94 81 81 77 77 77 77 74 74 77 81 87 90 97 97 94 87 87 90 100 97 94 94 100 97 100 100 100 100
90 90 100 100 100 100 97 97 97 97 97 94 90 84 84 81 77 74 71 68 68 68 71 77 71 81 87 90 90 84 87 87 90 97 94 97 90 100 100 100 100 94 97
97 97 100 100 100 100 97 97 97 97 97 87 87 84 87 81 77 68 58 52 48 52 52 61 68 68 81 74 77 74 74 87 90 94 94 100 87 100 100 100 97 94 87
97 100 100 100 100 100 100 97 100 100 90 84 81 77 74 77 71 65 52 48 45 39 45 52 52 58 65 65 68 65 74 90 90 90 97 90 90 94 94 90 90 84 81
90 100 100 100 100 100 100 100 100 100 90 84 84 77 77 74 71 55 58 48 48 48 29 32 39 45 52 48 52 42 65 90 65 77 87 84 90 90 84 84 74 77 81
61 84 97 100 100 100 100 100 100 100 94 87 81 87 87 74 71 61 55 45 42 45 29 26 39 42 32 29 42 42 61 94 65 71 71 81 90 87 81 81 81 77 74
26 55 74 81 90 100 100 100 100 100 100 94 94 90 87 84 74 74 58 52 39 39 19 23 23 29 23 29 42 55 74 71 23 58 58 84 94 84 84 77 77 71 71
6 13 23 45 58 74 94 97 100 100 100 97 94 90 90 74 45 61 55 71 42 29 26 23 16 19 29 55 81 90 65 10 29 39 45 90 84 77 84 77 77 71 68
19 19 19 19 29 39 65 87 97 97 97 97 94 94 81 48 52 52 58 87 58 32 23 23 26 19 23 6 19 77 3 6 26 29 55 97 87 77 71 77 74 71 68
19 19 16 19 19 26 48 68 84 90 94 90 90 84 77 52 48 35 29 58 32 23 13 19 16 3 0 0 0 0 0 0 3 13 48 97 94 81 68 74 74 77 74
10 10 10 6 16 23 26 48 61 71 77 68 65 61 61 61 35 19 26 19 13 13 13 10 3 0 0 0 0 0 0 0 6 10 23 90 84 84 65 65 77 87 74
3 6 6 10 10 13 29 48 32 55 55 48 71 45 55 55 35 19 6 13 3 3 6 6 0 0 0 0 0 0 0 0 0 10 3 87 81 71 61 52 68 71 77
0 0 0 0 6 6 10 19 39 55 61 61 71 52 23 39 26 23 13 3 0 3 3 0 0 0 0 0 0 0 0 0 0 0 3 61 84 77 74 58 45 58 61
0 0 0 0 0 6 3 6 16 39 42 55 68 55 32 29 23 26 13 6 3 0 3 0 0 0 0 0 0 0 0 0 0 3 13 0 16 65 71 61 48 48 45
0 0 0 0 0 0 6 10 6 13 35 42 52 52 39 39 29 19 19 6 10 10 3 3 0 0 0 0 0 0 0 0 0 3 3 6 0 0 48 71 65 61 48
0 0 0 0 0 0 0 6 13 16 19 29 42 39 42 35 45 29 16 16 6 6 3 3 3 0 0 0 0 0 0 0 0 0 0 0 0 0 0 35 71 61 61
0 0 0 0 0 0 0 0 13 19 16 26 32 42 39 42 42 23 23 19 13 13 3 3 3 3 3 0 0 0 0 0 0 0 0 0 0 0 0 0 3 10 68
0 0 0 0 0 0 0 3 3 13 16 19 23 23 32 35 39 42 26 10 13 10 6 6 3 0 0 0 0 0 0 0 0 0 0 0 0 0 0 0 0 0 0
0 0 0 0 0 0 3 3 3 3 6 3 19 23 23 26 35 35 35 29 10 10 6 3 3 0 0 0 0 0 0 0 0 0 0 0 0 0 0 0 0 0 0
0 0 0 0 0 0 0 0 0 3 13 16 13 26 19 23 19 23 29 32 19 13 10 3 3 0 0 0 0 0 0 0 0 0 0 0 0 0 0 0 0 0 0
0 0 0 0 0 0 0 0 0 0 3 6 16 19 16 16 19 13 29 32 19 13 16 10 3 0 3 0 0 0 0 0 0 0 0 0 0 0 0 0 0 0 0
0 0 0 0 0 0 0 0 0 10 10 10 10 13 16 10 16 23 26 29 13 13 16 16 6 6 0 0 0 0 0 0 0 0 0 0 0 0 0 0 0 0 0
0 0 0 0 0 0 3 3 6 3 3 6 6 13 13 10 19 19 23 19 19 13 16 16 6 3 3 3 0 0 0 0 0 0 0 0 0 0 0 0 0 0 0

GEFSSE_con_cape1000_072.txt.gz
Probability
29 84 100 100 100 100 100 100 100 100 100 97 100 97 97 97 97 90 97 97 97 100 100 100 100 100 97 97 97 97 100 100 97 100 97 97 100 100 100 100 97 97 97
42 100 100 100 100 100 100 100 100 100 100 100 100 100 97 97 97 94 97 97 97 100 100 100 100 97 97 97 97 97 94 100 97 100 97 94 97 100 100 100 97 100 100
81 100 100 100 100 100 100 100 100 100 100 100 100 100 100 97 97 87 84 87 94 94 97 94 94 90 90 94 90 90 90 94 97 97 94 87 94 94 97 97 100 100 94
100 100 100 100 100 100 100 100 100 97 97 97 97 97 94 97 90 87 84 81 81 81 84 90 84 87 90 90 94 87 90 97 100 97 71 71 74 87 90 94 100 100 94
90 100 100 100 100 100 100 100 100 97 97 97 97 97 90 81 81 77 74 74 68 71 77 77 87 84 81 81 84 84 87 94 100 71 58 58 61 94 94 97 90 100 97
87 100 100 100 100 100 100 100 100 97 97 94 90 94 87 84 81 77 71 65 55 61 61 65 77 74 74 71 71 77 77 90 84 55 52 52 65 90 87 90 94 94 94
87 100 100 100 100 100 100 100 100 100 97 90 90 90 90 87 84 84 71 55 55 58 52 68 61 61 58 55 58 74 71 94 61 45 42 52 68 90 84 81 90 90 87
94 97 97 100 100 100 100 100 100 100 97 97 90 90 94 87 87 87 71 65 65 58 55 61 65 55 58 55 55 52 65 87 35 45 52 52 81 90 81 74 81 84 77
68 81 84 90 90 100 100 100 100 100 100 97 94 94 90 94 90 84 81 71 71 68 58 55 61 65 58 58 58 58 81 94 13 29 48 45 84 84 77 74 71 74 77
35 45 55 61 81 81 84 97 100 100 100 100 97 94 94 94 94 87 87 81 68 68 61 55 58 58 71 71 71 77 94 55 3 19 35 65 87 81 74 71 68 74 74
16 13 19 29 35 45 61 74 84 100 100 100 100 100 100 94 81 84 87 90 84 84 77 68 61 68 81 77 84 94 77 0 3 19 23 68 90 81 74 74 74 81 77
0 0 0 10 19 32 32 42 58 65 77 81 87 90 87 65 39 52 48 94 97 90 90 84 74 81 68 13 10 58 16 0 3 13 29 97 94 81 74 77 77 74 81
0 0 0 3 0 13 16 10 26 39 45 58 58 55 58 42 26 32 19 45 77 90 61 48 68 29 10 0 0 0 3 0 0 3 29 100 97 81 77 77 81 81 84
0 0 0 0 0 0 0 0 10 13 16 32 39 42 26 26 26 16 10 16 23 32 19 13 16 6 0 0 0 0 0 0 0 0 3 100 94 84 77 77 81 81 81
0 0 0 0 0 0 0 0 0 6 6 10 16 19 19 23 16 13 10 6 10 3 6 3 0 0 0 0 0 0 0 0 0 0 3 87 94 90 81 77 81 84 81
0 0 0 0 0 0 0 0 0 0 0 6 10 19 16 10 13 10 10 3 3 0 0 0 0 0 0 0 0 0 0 0 0 0 0 52 94 84 84 74 84 87 81
0 0 0 0 0 0 0 0 0 0 0 3 3 6 13 13 6 6 6 3 3 0 0 0 0 0 0 0 0 0 0 0 0 0 0 10 39 84 90 81 77 81 81
0 0 0 0 0 0 0 0 0 0 0 3 3 3 3 3 0 3 6 6 0 3 0 0 0 0 0 0 0 0 0 0 0 0 0 0 6 13 58 87 84 87 84
0 0 0 0 0 0 0 0 0 0 3 3 3 3 0 3 6 0 6 3 0 0 0 0 0 0 0 0 0 0 0 0 0 0 0 0 0 0 3 45 81 81 81
0 0 0 0 0 0 0 0 0 0 0 0 0 0 0 0 0 3 0 3 0 0 0 0 0 0 0 0 0 0 0 0 0 0 0 0 0 0 0 6 16 35 77
0 0 0 0 0 0 0 0 0 0 0 0 0 0 0 0 0 0 3 3 0 0 0 0 0 0 0 0 0 0 0 0 0 0 0 0 0 0 0 0 0 0 13
0 0 0 0 0 0 0 0 0 0 0 0 0 0 0 0 0 6 3 3 3 0 0 0 0 0 0 0 0 0 0 0 0 0 0 0 0 0 0 0 0 0 0
0 0 0 0 0 0 0 0 0 0 0 0 0 0 0 0 0 0 3 3 3 0 0 0 0 0 0 0 0 0 0 0 0 0 0 0 0 0 0 0 0 0 0
0 0 0 0 0 0 0 0 0 0 0 0 0 0 0 3 0 0 6 3 3 0 0 3 3 0 0 0 0 0 0 0 0 0 0 0 0 0 0 0 0 0 0
0 0 0 0 0 0 0 0 0 0 0 0 0 0 0 3 3 0 3 0 3 3 0 3 3 3 0 0 0 0 0 0 0 0 0 0 0 0 0 0 0 0 0
0 0 0 0 0 0 0 0 0 0 0 0 0 0 0 3 3 0 3 0 0 0 0 0 0 0 0 0 0 0 0 0 0 0 0 0 0 0 0 0 0 0 0

GEFSSE_con_cape1000_078.txt.gz
Probability
3 35 100 100 100 100 100 100 100 100 100 97 94 94 100 100 97 97 97 97 100 100 100 100 100 100 97 97 94 100 100 100 100 97 97 100 97 100 100 100 100 100 97
10 71 100 100 100 100 100 100 100 100 100 97 97 97 100 97 94 97 94 94 94 97 100 100 97 94 90 94 94 94 100 100 100 97 97 94 97 97 97 97 97 97 97
61 94 100 100 100 100 100 100 100 100 100 100 100 100 97 97 97 87 87 87 94 94 97 97 94 94 90 87 90 94 100 100 100 97 94 84 90 94 97 97 97 97 97
81 100 100 100 100 100 100 97 100 100 100 100 100 100 100 94 90 90 87 87 87 87 87 84 87 87 84 84 90 94 94 100 94 84 68 68 71 81 97 94 97 97 90
87 97 100 100 100 100 100 100 100 100 100 100 100 100 94 87 87 84 84 77 74 74 77 81 90 87 81 81 90 90 90 94 77 61 52 58 61 74 87 94 94 94 87
84 94 94 100 100 100 100 100 100 100 97 97 97 94 87 84 87 84 81 77 74 71 77 74 81 84 74 77 77 81 94 84 65 42 39 45 58 74 77 90 90 87 87
68 84 87 97 100 100 100 100 100 100 97 97 97 94 94 84 87 84 77 77 65 65 68 68 71 65 58 65 71 71 77 84 39 26 35 35 58 74 71 77 84 87 87
52 68 65 81 90 97 97 100 100 100 97 97 94 94 94 94 90 87 81 77 68 71 65 71 71 65 58 58 58 58 61 81 48 35 35 35 61 81 71 74 81 81 84
39 42 45 48 55 77 87 94 97 100 100 97 97 97 94 94 94 90 87 81 71 71 71 68 65 65 61 58 61 61 58 87 10 16 32 35 61 84 74 71 71 81 71
10 13 6 16 32 42 52 71 77 87 90 100 100 97 100 100 94 94 90 87 81 74 77 74 71 65 68 68 58 61 68 48 0 0 13 32 77 71 58 68 68 71 71
0 0 0 0 0 6 10 35 48 55 71 77 87 90 94 94 81 87 94 90 90 87 87 87 84 71 74 71 74 77 68 0 0 0 6 42 77 77 74 65 65 65 71
0 0 0 0 0 0 3 6 3 19 29 39 45 48 65 65 68 77 61 90 94 94 94 90 90 87 65 19 16 29 0 0 0 3 3 58 65 74 74 65 65 71 71
0 0 0 0 0 0 0 3 3 3 3 10 26 32 42 45 39 65 32 42 58 77 77 81 71 55 23 0 0 0 0 0 0 0 0 61 68 71 65 71 61 65 71
0 0 0 0 0 0 0 0 0 0 0 0 3 13 6 13 16 13 19 13 13 10 19 16 23 19 10 0 0 0 0 0 0 0 0 35 77 74 71 68 65 74 71
0 0 0 0 0 0 0 0 0 0 0 0 0 3 6 6 6 13 13 13 10 10 3 3 6 13 3 0 0 0 0 0 0 0 0 19 74 81 74 74 68 71 71
0 0 0 0 0 0 0 0 0 0 0 0 0 0 3 3 0 3 10 6 6 6 6 6 3 3 0 0 0 0 0 0 0 0 0 3 65 87 87 71 74 71 71
0 0 0 0 0 0 0 0 0 0 0 0 0 0 3 3 3 3 3 10 3 6 6 3 0 0 0 0 0 0 0 0 0 0 0 0 6 65 84 84 74 71 71
0 0 0 0 0 0 0 0 0 0 0 0 0 0 0 3 3 3 3 0 3 3 6 3 0 0 0 0 0 0 0 0 0 0 0 0 0 13 42 81 81 84 77
0 0 0 0 0 0 0 0 0 0 0 0 0 0 0 0 3 0 0 0 0 3 0 3 0 0 0 0 0 0 0 0 0 0 0 0 0 3 6 32 71 74 87
0 0 0 0 0 0 0 0 0 0 0 0 0 0 0 0 0 0 0 3 0 3 0 3 0 0 0 0 0 0 0 0 0 0 0 0 0 0 0 6 29 42 68
0 0 0 0 0 0 0 0 0 0 0 0 0 0 0 0 0 0 0 0 0 0 0 0 3 0 0 0 0 0 0 0 0 0 0 0 0 0 0 0 0 0 13
0 0 0 0 0 0 0 0 0 0 0 0 0 0 0 0 0 0 0 0 0 0 0 0 0 0 0 0 0 0 0 0 0 0 0 0 0 0 0 0 0 0 0
0 0 0 0 0 0 0 0 0 0 0 0 0 0 0 0 0 0 0 0 0 0 3 3 0 0 0 0 0 0 0 0 0 0 0 0 0 0 0 0 0 0 0
0 0 0 0 0 0 0 0 0 0 0 0 0 0 0 0 0 0 0 0 0 0 3 3 0 0 0 0 0 0 0 0 0 0 0 0 0 0 0 0 0 0 0
0 0 0 0 0 0 0 0 0 0 0 0 0 0 0 0 0 0 0 0 0 0 3 3 0 0 0 0 0 0 0 0 0 0 0 0 0 0 0 0 0 0 0
0 0 0 0 0 0 0 0 0 0 0 0 0 0 0 0 3 0 0 0 0 3 3 3 0 0 0 0 0 0 0 0 0 0 0 0 0 0 0 0 0 0 0

GEFSSE_con_cape1000_084.txt.gz
Probability
6 42 94 97 97 100 97 100 100 100 97 94 94 97 100 100 100 100 100 100 100 100 100 100 100 100 100 97 97 97 100 100 100 97 97 97 97 97 97 97 94 84 94
13 48 97 100 97 100 100 97 94 94 94 94 94 97 100 100 100 100 97 100 100 100 97 97 94 94 94 90 97 97 97 100 100 97 97 94 97 97 97 100 94 97 97
26 55 94 100 100 100 100 94 97 100 97 97 100 100 100 100 97 90 90 87 94 90 90 94 90 97 87 84 94 94 94 97 94 94 97 87 87 90 94 90 90 94 90
29 68 84 100 100 100 100 97 97 100 100 100 97 97 97 90 90 87 87 90 87 84 84 84 90 90 87 87 94 94 94 94 94 87 84 77 71 77 84 90 90 90 81
42 68 87 100 100 97 100 97 97 97 100 97 97 97 97 97 84 87 84 87 90 84 84 84 81 90 84 87 84 94 94 81 84 74 81 84 87 77 84 87 84 90 84
45 58 71 97 94 94 94 97 97 97 97 100 97 94 94 94 90 90 87 81 84 77 74 81 77 74 84 77 74 74 74 81 74 77 81 77 77 81 74 71 77 84 77
23 26 48 71 77 87 87 87 87 94 94 94 97 94 97 94 87 87 87 84 74 74 74 77 71 61 58 52 55 58 68 68 65 71 74 74 77 68 65 68 74 74 77
23 16 29 45 55 61 68 81 74 74 84 84 90 94 94 90 94 90 87 87 77 74 74 84 77 58 52 48 48 48 55 65 35 45 55 71 81 61 65 68 71 77 65
19 16 19 16 26 35 42 52 55 61 68 77 84 90 94 94 90 90 90 87 87 81 77 71 77 61 52 61 48 39 48 42 48 48 35 61 71 65 61 68 65 61 71
6 10 3 6 3 6 23 19 32 32 35 58 65 71 81 87 90 87 90 94 87 87 81 81 77 68 55 52 61 52 48 32 32 35 39 55 58 61 58 61 61 65 68
0 0 0 3 6 6 6 10 19 16 16 26 32 42 58 68 65 87 71 87 94 94 94 87 84 71 65 58 52 65 39 26 23 32 35 55 52 61 55 58 61 71 68
0 0 0 0 0 0 3 3 13 16 13 16 23 39 58 65 81 45 39 84 97 97 94 97 87 77 48 45 52 32 16 16 19 26 26 48 55 48 55 55 58 68 71
3 3 3 3 3 0 3 3 10 16 10 13 16 23 39 55 71 74 74 84 84 84 74 90 84 65 42 32 29 13 3 0 3 13 23 48 42 52 42 55 58 65 65
0 0 0 0 0 0 0 0 6 13 10 3 13 6 19 45 52 48 71 71 68 81 90 77 77 35 48 16 6 3 0 3 6 6 42 32 32 39 39 52 61 65 65
0 0 0 0 0 0 0 0 0 0 3 6 6 10 13 26 29 35 42 58 61 68 74 84 48 48 32 16 10 3 3 0 0 0 19 35 35 42 45 45 61 61 58
0 0 0 0 0 0 0 0 0 0 0 0 3 3 0 16 26 39 35 42 48 65 65 77 45 48 58 29 13 3 3 0 3 3 10 23 26 68 55 52 52 58 55
0 0 0 0 0 0 0 0 0 0 0 0 0 0 0 3 6 26 26 29 42 39 29 42 23 45 39 16 19 6 3 3 0 0 3 10 19 42 81 65 61 68 61
0 0 0 0 0 0 0 0 0 0 0 3 0 3 0 3 3 10 26 26 39 32 35 42 52 58 39 29 19 16 3 10 3 0 0 6 16 16 42 81 74 77 74
0 0 0 0 0 0 0 0 0 0 3 3 3 6 3 6 3 6 29 32 32 39 42 32 35 45 39 42 19 19 6 10 6 0 0 0 6 29 29 58 71 84 84
0 0 0 0 0 0 0 0 0 0 3 3 3 3 0 0 6 13 23 32 32 42 42 42 45 55 45 35 6 3 13 13 13 13 3 3 3 3 3 13 45 35 81
0 0 0 0 0 0 0 0 3 0 3 6 3 3 3 3 3 13 16 19 29 32 29 35 45 32 32 32 16 10 16 3 6 13 6 0 0 0 13 10 26 26 42
0 0 0 0 0 0 0 0 0 0 0 3 3 0 3 3 3 3 16 13 23 35 29 29 32 35 35 19 13 13 6 13 16 0 16 19 3 16 29 3 6 6 13
0 0 0 0 0 0 0 0 0 0 0 0 0 3 3 3 10 13 10 13 16 26 29 23 19 26 29 26 19 13 10 3 16 6 3 6 13 35 23 10 6 3 6
0 0 0 0 0 0 0 0 0 0 0 0 0 0 0 0 0 13 13 16 23 23 23 16 13 26 26 23 23 23 13 10 13 6 3 3 10 19 16 10 10 10 10
0 0 0 0 0 0 0 0 0 0 0 0 0 0 0 0 6 6 10 16 16 23 26 16 13 16 29 26 16 16 10 13 3 6 6 3 6 6 19 16 16 19 19
0 0 0 0 0 0 0 0 0 0 0 0 0 0 0 3 6 6 6 3 10 13 13 13 13 19 19 23 26 23 6 10 10 6 10 6 0 0 10 23 23 29 35

GEFSSE_con_cape1000_090.txt.gz
Probability
84 94 97 97 94 97 87 87 84 87 84 90 94 90 100 97 97 97 97 97 97 100 97 94 100 97 94 97 97 100 100 100 97 100 97 97 97 97 90 94 97 97 90
77 90 97 97 90 94 97 81 77 84 87 87 90 87 100 97 97 94 87 90 90 90 94 97 94 94 94 90 97 100 100 100 97 97 100 100 94 97 94 90 94 90 84
81 90 94 100 90 90 90 87 84 84 87 87 84 87 94 90 94 90 90 87 84 84 87 87 94 87 87 87 94 100 100 94 94 94 97 97 97 90 87 94 90 84 77
71 90 97 97 94 94 94 81 81 87 84 87 84 81 87 90 90 84 84 77 84 77 77 84 87 87 90 87 94 87 90 90 94 97 100 94 87 87 87 84 87 74 71
68 77 87 94 90 94 94 90 77 84 84 84 81 81 74 81 81 81 77 84 81 81 74 77 77 81 81 81 81 81 84 94 97 97 87 90 77 84 84 81 74 68 77
71 65 71 77 81 74 74 68 74 81 77 81 74 81 81 87 87 90 90 84 77 81 74 84 77 81 74 77 68 71 84 81 87 77 87 94 87 81 68 71 71 77 65
45 52 52 61 58 45 42 35 48 58 71 81 74 81 84 87 84 87 94 90 90 81 81 84 81 68 68 65 65 61 74 90 74 71 81 84 74 77 71 68 71 71 71
26 26 42 52 52 48 32 35 45 42 52 58 71 81 77 74 77 87 87 87 90 84 84 87 87 77 61 61 61 61 61 71 48 45 71 71 77 77 68 61 71 65 61
10 16 19 16 39 48 45 29 29 39 29 29 42 52 55 77 77 81 81 87 97 87 90 90 84 74 81 65 61 55 61 74 45 32 52 71 90 77 68 65 58 65 58
6 3 3 6 6 13 19 16 19 29 32 29 29 39 42 61 71 84 84 90 94 90 90 94 87 81 77 84 77 68 68 71 10 19 42 71 94 71 65 55 61 61 65
3 0 0 0 3 3 6 10 10 19 32 29 16 29 39 32 32 55 68 81 84 87 87 94 90 84 77 77 84 87 77 26 0 19 45 84 81 65 52 58 68 65 68
3 3 3 3 0 0 0 3 10 10 16 16 16 16 23 23 26 35 35 65 71 74 87 87 90 84 74 39 61 84 39 3 0 16 52 94 81 65 55 61 58 58 61
0 0 0 0 3 3 3 6 10 10 13 16 6 6 6 19 29 32 32 48 48 61 55 71 84 61 32 16 23 45 13 3 0 3 45 90 74 65 55 48 55 61 61
0 0 0 0 0 0 0 0 3 3 10 13 19 13 13 13 13 13 19 23 26 29 26 35 42 23 16 13 13 16 10 6 6 13 39 87 81 68 52 55 58 58 61
0 0 0 0 0 0 0 0 0 3 3 3 6 10 10 13 10 13 19 23 16 19 19 19 23 3 3 3 3 3 3 3 3 13 26 87 87 81 74 61 55 61 58
0 0 0 0 0 0 0 0 0 0 3 0 3 3 3 3 6 6 13 13 10 13 13 13 10 6 10 3 0 3 3 3 0 6 3 52 87 84 77 71 61 61 68
0 0 0 0 0 0 0 0 0 0 0 0 0 0 0 0 3 3 6 3 6 6 6 6 3 3 3 3 3 3 3 3 3 3 3 0 19 77 87 77 74 71 65
0 0 0 0 0 0 0 0 0 0 0 0 0 0 0 0 0 3 6 6 3 6 0 6 3 3 6 6 3 6 3 3 3 3 10 3 0 0 55 87 87 90 77
0 0 0 0 0 0 0 0 0 0 0 0 0 3 0 0 3 3 6 6 3 0 3 0 3 3 6 3 3 3 3 3 3 3 0 3 0 0 0 45 87 94 94
0 0 0 0 0 0 0 0 0 0 0 0 0 0 3 6 0 3 3 3 0 3 3 0 0 6 3 3 0 0 0 0 3 3 0 0 0 0 0 3 26 35 94
0 0 0 0 0 0 0 0 0 0 3 3 0 0 3 3 6 0 3 0 3 3 3 3 0 0 3 3 0 0 0 0 0 0 0 0 0 0 0 0 0 6 19
0 0 0 0 0 0 0 0 0 0 0 0 0 0 0 0 3 0 6 6 3 3 3 0 3 0 0 0 0 0 0 0 0 0 0 0 0 0 3 0 0 0 0
0 0 0 0 0 0 0 0 0 0 0 0 0 0 0 0 6 6 3 6 6 3 3 0 0 0 0 0 0 0 0 0 0 0 0 0 0 0 0 3 3 0 0
0 0 0 0 0 0 0 0 0 0 0 0 0 0 0 0 0 0 0 6 6 10 6 3 0 0 0 0 0 0 0 0 0 0 0 0 0 0 0 0 0 3 0
0 0 0 0 0 0 0 0 0 0 0 0 0 0 0 0 0 0 0 0 3 3 3 0 0 0 0 3 0 0 0 0 0 0 0 0 0 0 0 0 0 0 0
0 0 0 0 0 0 0 0 0 0 0 0 0 0 0 0 0 0 0 0 0 0 0 0 0 3 3 3 0 0 0 0 0 0 0 0 0 3 3 0 0 0 0

GEFSSE_con_cape1000_096.txt.gz
Probability
42 84 97 97 97 100 100 94 90 94 90 94 97 90 90 94 97 94 94 94 94 94 94 94 94 94 87 90 94 97 97 90 94 94 97 94 94 94 90 97 94 90 94
55 90 94 97 94 100 97 90 87 84 87 87 87 90 87 94 90 90 87 81 84 84 90 94 94 87 84 87 84 94 97 97 94 94 97 94 87 90 90 94 87 84 87
71 87 94 94 97 97 94 90 84 87 87 87 87 84 90 94 94 87 90 74 74 74 81 77 77 87 87 90 84 87 90 94 94 97 100 74 77 87 84 87 81 81 84
74 87 90 97 97 97 94 87 87 87 90 90 87 87 87 94 90 87 81 81 77 74 71 81 71 71 77 81 77 77 77 87 94 97 87 77 65 74 84 87 81 77 84
68 81 87 87 90 90 87 90 90 90 87 87 87 87 87 90 90 90 90 87 77 74 74 71 71 65 68 77 77 68 74 81 87 77 52 48 55 81 81 77 84 74 81
55 71 74 77 77 81 87 84 84 90 90 94 90 90 87 87 90 90 90 87 81 77 74 81 77 77 68 71 74 65 71 81 74 32 42 39 45 81 77 77 81 81 74
32 55 61 71 71 68 71 68 74 68 77 84 87 84 90 90 87 94 94 90 94 84 87 87 90 81 74 71 71 65 71 81 61 23 26 32 52 81 77 74 71 71 68
35 39 48 48 65 61 61 58 55 48 58 61 74 84 81 84 81 87 87 94 97 97 90 90 90 84 77 81 74 65 65 71 52 13 23 32 71 84 74 74 77 77 77
19 23 29 29 35 48 58 55 58 52 42 48 55 68 74 74 74 77 81 87 94 97 94 90 97 84 87 87 81 81 77 84 55 13 13 23 77 84 74 74 81 77 87
10 13 13 19 23 26 23 29 42 45 35 29 39 52 52 61 61 65 71 81 81 87 90 90 90 94 94 87 87 90 94 81 42 3 6 26 84 87 71 74 77 81 84
3 3 6 6 10 13 10 16 23 19 26 29 19 19 26 13 13 26 48 74 77 84 87 87 87 90 90 90 84 90 87 45 16 0 3 35 90 84 81 84 77 77 81
0 0 0 0 0 0 0 3 3 3 6 6 3 3 3 0 0 6 19 35 52 68 71 84 87 87 87 61 52 81 52 32 10 6 3 74 84 84 81 84 84 77 74
0 0 0 0 0 0 0 0 3 3 3 3 0 0 0 0 0 3 6 6 16 29 29 45 52 42 42 23 16 10 10 6 3 0 3 87 87 90 84 87 84 71 68
0 0 0 0 0 0 0 0 0 0 0 0 3 3 0 0 0 0 0 0 0 3 16 23 23 23 26 13 6 0 0 0 0 0 3 77 94 87 84 90 77 74 71
0 0 0 0 0 0 0 0 0 0 0 0 0 0 0 0 0 0 0 0 0 0 6 3 6 10 3 3 0 0 0 0 0 0 0 74 90 87 84 77 81 84 77
0 0 0 0 0 0 0 0 0 0 0 0 0 0 0 0 0 0 0 0 0 0 0 3 0 0 0 0 0 0 0 0 0 0 0 26 81 90 90 81 74 77 77
0 0 0 0 0 0 0 0 0 0 0 0 0 0 0 0 0 0 0 0 0 0 0 0 0 0 0 0 0 0 0 0 0 0 0 10 23 74 87 87 87 81 87
0 0 0 0 0 0 0 0 0 0 0 0 0 0 0 0 0 0 0 0 0 0 0 0 0 0 0 0 0 0 0 0 0 0 0 0 6 13 52 81 90 90 87
0 0 0 0 0 0 0 0 0 0 0 0 0 0 0 0 0 0 0 0 0 0 0 0 0 0 0 0 0 0 0 0 0 0 0 0 3 3 16 52 77 84 90
0 0 0 0 0 0 0 0 0 0 0 0 0 0 0 0 0 0 0 0 0 0 0 0 0 0 0 0 0 0 0 0 0 0 0 0 0 3 6 13 52 52 77
0 0 0 0 0 0 0 0 0 0 0 0 0 0 0 0 0 0 0 0 0 0 0 0 0 0 0 0 0 0 0 0 0 0 0 0 0 0 0 6 10 10 29
0 0 0 0 0 0 0 0 0 0 0 0 0 0 0 0 0 0 0 0 0 0 0 0 0 0 0 0 0 0 0 0 0 0 0 0 0 0 0 0 0 0 6
0 0 0 0 0 0 0 0 0 0 0 0 0 0 0 0 0 0 0 0 0 0 0 0 0 0 0 0 0 0 0 0 0 0 0 0 0 0 0 0 0 0 0
0 0 0 0 0 0 0 0 0 0 0 0 0 0 0 0 0 0 0 0 0 0 0 0 0 0 0 0 0 0 0 0 0 0 0 0 0 0 0 0 0 0 0
0 0 0 0 0 0 0 0 0 0 0 0 0 0 0 0 0 0 0 0 0 0 0 0 0 0 0 0 0 0 0 0 0 0 0 0 0 0 0 0 0 0 0
0 0 0 0 0 0 0 0 0 0 0 0 0 0 0 0 0 0 0 0 0 0 0 0 0 0 0 0 0 0 0 0 0 0 0 0 0 0 0 0 0 0 0